Orlando International, FL

4:40 AM EDT on April 27, 2018 (GMT -0400)
Orlando International

Weather History for KMCO - March, 2012

Change the Weather History Date:

Wednesday, March 7, 2012

  Actual Average Record
Temperature  
Mean Temperature 70 °F 66 °F  
Max Temperature 76 °F 77 °F 90 °F (1938)
Min Temperature 64 °F 55 °F 29 °F (1920)
Degree Days  
Heating Degree Days 0 3  
Month to date heating degree days 8 21  
Since 1 July heating degree days 309 520  
Cooling Degree Days 5 3  
Month to date cooling degree days 38 21  
Year to date cooling degree days 179 125  
Growing Degree Days 18 (Base 50)    
Moisture  
Dew Point 56 °F    
Average Humidity 68    
Maximum Humidity 93    
Minimum Humidity 43    
Precipitation  
Precipitation T in 0.11 in 1.56 in (2008)
Month to date precipitation 0.22 0.73  
Year to date precipitation 3.49 5.46  
Sea Level Pressure  
Sea Level Pressure 30.38 in    
Wind  
Wind Speed 11 mph (ENE)    
Max Wind Speed 20 mph    
Max Gust Speed 29 mph    
Visibility 10 miles    
Events      
T = Trace of Precipitation, MM = Missing Value Source: NWS Daily Summary

Daily Weather History Graph

Daily Weather History Graph

Search for Another Location

Airport or City:

Astronomy

Mar. 07, 2012 Rise Set
Actual Time 6:43 AM EST 6:29 PM EST
Civil Twilight 6:19 AM EST 6:52 PM EST
Nautical Twilight 5:52 AM EST 7:20 PM EST
Astronomical Twilight 5:25 AM EST 7:47 PM EST
Moon 6:01 PM EST (3/7) 5:51 AM EST (3/7)
Length of Visible Light 12h 33m
Length of Day
11h 46m
Waxing Gibbous, 99% of the Moon is Illuminated
Mar 7
Waxing Gibbous
Mar 8
Full
Mar 14
Last Quarter
Mar 22
New
Mar 30
First Quarter

Hourly Weather History & Observations

Time (EST) Temp. Dew Point Humidity Pressure Visibility Wind Dir Wind Speed Gust Speed Precip Events Conditions
12:53 AM 61.0 °F 51.1 °F 70% 30.43 in 10.0 mi ENE 8.1 mph - N/A   Scattered Clouds
1:53 AM 62.1 °F 53.1 °F 72% 30.40 in 10.0 mi ENE 11.5 mph - N/A   Partly Cloudy
2:53 AM 63.0 °F 53.1 °F 70% 30.39 in 10.0 mi ENE 10.4 mph - N/A   Scattered Clouds
3:53 AM 62.1 °F 53.1 °F 72% 30.38 in 10.0 mi NE 8.1 mph - N/A   Scattered Clouds
4:53 AM 61.0 °F 53.1 °F 75% 30.37 in 10.0 mi ENE 6.9 mph - N/A   Partly Cloudy
5:53 AM 60.1 °F 53.1 °F 78% 30.38 in 10.0 mi ENE 4.6 mph - N/A   Partly Cloudy
6:53 AM 60.1 °F 53.1 °F 78% 30.40 in 10.0 mi ENE 4.6 mph - N/A   Scattered Clouds
7:53 AM 64.9 °F 55.0 °F 70% 30.41 in 10.0 mi ENE 8.1 mph - N/A   Scattered Clouds
8:53 AM 71.1 °F 57.0 °F 61% 30.41 in 10.0 mi East 12.7 mph - N/A   Scattered Clouds
9:53 AM 73.4 °F 53.6 °F 50% 30.42 in 10.0 mi East 18.4 mph 28.8 mph N/A   Mostly Cloudy
10:53 AM 76.3 °F 53.6 °F 45% 30.42 in 10.0 mi ENE 11.5 mph - N/A   Mostly Cloudy
11:53 AM 77.0 °F 55.9 °F 48% 30.41 in 10.0 mi East 18.4 mph - N/A   Mostly Cloudy
12:53 PM 77.7 °F 55.0 °F 45% 30.38 in 10.0 mi East 19.6 mph - N/A   Mostly Cloudy
1:53 PM 75.0 °F 54.0 °F 48% 30.36 in 10.0 mi East 16.1 mph 23.0 mph N/A   Overcast
2:53 PM 75.0 °F 55.9 °F 51% 30.35 in 10.0 mi ENE 19.6 mph 25.3 mph N/A   Mostly Cloudy
3:53 PM 77.0 °F 53.6 °F 44% 30.35 in 10.0 mi East 16.1 mph - N/A   Mostly Cloudy
4:53 PM 75.0 °F 57.0 °F 53% 30.34 in 10.0 mi East 11.5 mph - N/A   Mostly Cloudy
5:53 PM 71.1 °F 57.9 °F 63% 30.35 in 10.0 mi East 11.5 mph - N/A   Mostly Cloudy
6:53 PM 69.1 °F 57.9 °F 68% 30.35 in 10.0 mi ENE 10.4 mph - N/A   Mostly Cloudy
7:53 PM 68.0 °F 59.0 °F 73% 30.35 in 10.0 mi East 8.1 mph - N/A   Mostly Cloudy
8:53 PM 66.9 °F 62.1 °F 84% 30.36 in 10.0 mi East 11.5 mph - N/A   Overcast
9:53 PM 66.0 °F 63.0 °F 90% 30.36 in 10.0 mi ENE 6.9 mph - 0.00 in   Mostly Cloudy
10:53 PM 64.9 °F 63.0 °F 93% 30.35 in 10.0 mi ENE 5.8 mph - N/A   Mostly Cloudy
11:53 PM 64.9 °F 62.1 °F 90% 30.33 in 10.0 mi ENE 5.8 mph - N/A   Scattered Clouds